Regional Weather Roundup
Issued by NWS

Home | Current Version | Previous Version | Text Only | Print | Product List | Glossary On
Versions: 1 2 3 4 5 6 7 8 9 10 11 12 13 14 15 16 17 18 19 20 21 22 23 24 25 26 27
000
ASUS44 KLIX 230113
RWRLA
LOUISIANA WEATHER ROUNDUP
NATIONAL WEATHER SERVICE NEW ORLEANS LA
700 PM CST MON JAN 22 2018

NOTE: "FAIR" INDICATES FEW OR NO CLOUDS BELOW 12,000 FEET WITH NO
      SIGNIFICANT WEATHER AND/OR OBSTRUCTIONS TO VISIBILITY.
      SKY/WX - SKY CONDITION AND SIGNIFICANT WEATHER.
      TMP - AIR TEMPERATURE.    DP   - DEWPOINT TEMPERATURE.
      RH  - RELATIVE HUMIDITY.  PRES - PRESSURE.
      HX  - HEAT INDEX.         WCI  - WIND CHILL INDEX.

*  THESE STATIONS ARE NOT NWS OR FAA STATIONS AND ARE NOT UNDER
   NWS QUALITY CONTROL.

LAZ040-048-061>063-065-066-069-230200-
SOUTHEAST LOUISIANA

CITY           SKY/WX    TMP DP  RH WIND       PRES   REMARKS
N.O. INTL ARPT MOCLDY    62  56  80 NW5       29.97R
N.O. LAKEFRONT FAIR      56  53  90 W5        29.97R
N.O. DOWNTOWN* FAIR      67  54  63 CALM      29.98R
RESERVE*       FAIR      59  51  74 W5        29.98R
SLIDELL        FAIR      60  49  66 SW3       29.96R
BATON ROUGE    FAIR      59  32  36 W6        29.99R
BOOTHVILLE     NOT AVBL
BELLE CHASSE   MOCLDY    57  55  93 CALM      29.97
BOGALUSA*      FAIR      59  49  70 NW3       29.96R
GALLIANO*      FAIR      59  55  84 CALM      29.97R
NEW ROADS*     FAIR      56  35  46 NW9       30.01R
GONZALES*      FAIR      58  44  61 CALM      29.97R
HAMMOND*       FAIR      52  45  76 CALM      29.97R
HOUMA*         CLEAR     64  50  59 CALM      29.97R
PORT FOURCHON* MOCLDY    63  59  88 W8        29.99R

$$

LAZ041-044-053-054-230200-
SOUTHWEST LOUISIANA

CITY           SKY/WX    TMP DP  RH WIND       PRES   REMARKS
LAKE CHARLES   FAIR      55  33  43 NW6       30.04R
LAFAYETTE      FAIR      59  33  37 NW7       30.01R
PATTERSON      FAIR      61  39  44 W6        30.00R
SALT POINT     NOT AVBL
NEW IBERIA     FAIR      54  41  61 W5        30.02R
CHENAULT AIRPK NOT AVBL

$$

LAZ027-028-230200-
CENTRAL LOUISIANA

CITY           SKY/WX    TMP DP  RH WIND       PRES   REMARKS
FORT POLK      FAIR      55  28  34 W7        30.02R
ALEXANDRIA INT FAIR      51  37  58 W7        30.00R
ALEXANDRIA     FAIR      54  27  35 W6        30.00R

$$

LAZ001-002-230200-
NORTHWEST LOUISIANA

CITY           SKY/WX    TMP DP  RH WIND       PRES   REMARKS
SHREVEPORT     FAIR      54  24  31 W12       30.02R
BARKSDALE AFB  FAIR      54  24  31 W10       30.02R
DTN SHREVEPORT FAIR      55  25  31 W7        30.02R

$$

LAZ014-016-230200-
NORTHEAST LOUISIANA

CITY           SKY/WX    TMP DP  RH WIND       PRES   REMARKS
MONROE         FAIR      56  26  31 W15       29.98R
TALLULAH       FAIR      51  32  48 W6        29.97R

$$





USA.gov is the U.S. government's official web portal to all federal, state and local government web resources and services.